TimeEST,TemperatureF,Dew PointF,Humidity,Sea Level PressureIn,VisibilityMPH,Wind Direction,Wind SpeedMPH,Gust SpeedMPH,PrecipitationIn,Events,Conditions,WindDirDegrees,DateUTC
12:52 AM,19.0,15.1,85,30.25,10.0,Calm,Calm,-,N/A,,Clear,0,2012-12-07 05:52:00
1:52 AM,19.9,16.0,85,30.25,10.0,Calm,Calm,-,N/A,,Clear,0,2012-12-07 06:52:00
2:52 AM,19.9,16.0,85,30.24,10.0,Calm,Calm,-,N/A,,Clear,0,2012-12-07 07:52:00
3:52 AM,18.0,14.0,84,30.22,10.0,Calm,Calm,-,N/A,,Clear,0,2012-12-07 08:52:00
4:52 AM,19.9,16.0,85,30.21,10.0,Calm,Calm,-,N/A,,Clear,0,2012-12-07 09:52:00
5:52 AM,21.0,17.1,85,30.20,10.0,Calm,Calm,-,N/A,,Clear,0,2012-12-07 10:52:00
6:52 AM,21.0,17.1,85,30.20,10.0,Calm,Calm,-,N/A,,Clear,0,2012-12-07 11:52:00
7:52 AM,21.9,18.0,85,30.18,10.0,Calm,Calm,-,N/A,,Clear,0,2012-12-07 12:52:00
8:52 AM,24.1,19.0,81,30.17,10.0,Calm,Calm,-,N/A,,Clear,0,2012-12-07 13:52:00
9:52 AM,26.1,19.9,78,30.16,10.0,Calm,Calm,-,N/A,,Clear,0,2012-12-07 14:52:00
10:52 AM,28.9,21.0,72,30.13,10.0,NW,3.5,-,N/A,,Clear,320,2012-12-07 15:52:00
11:52 AM,33.1,19.9,59,30.09,10.0,Calm,Calm,-,N/A,,Clear,0,2012-12-07 16:52:00
12:52 PM,35.1,19.0,52,30.07,10.0,Calm,Calm,-,N/A,,Clear,0,2012-12-07 17:52:00
1:52 PM,36.0,18.0,48,30.05,10.0,Calm,Calm,-,N/A,,Overcast,0,2012-12-07 18:52:00
2:52 PM,37.0,18.0,46,30.04,10.0,Calm,Calm,-,N/A,,Mostly Cloudy,0,2012-12-07 19:52:00
3:52 PM,30.9,21.9,69,30.06,10.0,Calm,Calm,-,N/A,,Clear,0,2012-12-07 20:52:00
4:52 PM,32.0,23.0,69,30.06,10.0,Calm,Calm,-,N/A,,Mostly Cloudy,0,2012-12-07 21:52:00
5:52 PM,32.0,24.1,73,30.06,10.0,Calm,Calm,-,N/A,,Overcast,0,2012-12-07 22:52:00
6:52 PM,32.0,24.1,73,30.06,10.0,Calm,Calm,-,N/A,,Overcast,0,2012-12-07 23:52:00
7:52 PM,32.0,25.0,75,30.05,10.0,Calm,Calm,-,N/A,,Partly Cloudy,0,2012-12-08 00:52:00
8:52 PM,32.0,25.0,75,30.05,10.0,Calm,Calm,-,N/A,,Overcast,0,2012-12-08 01:52:00
9:52 PM,32.0,25.0,75,30.05,10.0,Calm,Calm,-,N/A,,Overcast,0,2012-12-08 02:52:00
10:52 PM,30.9,25.0,79,30.05,10.0,Calm,Calm,-,N/A,,Overcast,0,2012-12-08 03:52:00
11:52 PM,32.0,25.0,75,30.04,10.0,Calm,Calm,-,N/A,,Overcast,0,2012-12-08 04:52:00